Lake Tahoe Airport
KTVL : rendu visible

Aérodrome :











RETROUVEZ-NOUS SUR...

 
LOGIN :

S'inscrire | Disclaimer

   EN    FR    IT 

 









Légende :    VFR   VFR Marginal   IFR   IFR Intensif   IFR Très Intensif
Visi : 
Plafond : 
>= 8 km
>= 3000ft
5 à 8 km
1000 à 3000 ft
1500m à 5 km
500 à 1000 ft
800 à 1500m
200 à 500 ft
< 800m
< 200 ft
Symboles :   Orages  Brouillard  Fortes neiges  Fortes précipitations  Vent > 20 kt






- Altitude de l'aérodrome : 6264 ft
- Code IATA : TVL


KTVL - Lake Tahoe

DERNIER METAR :
  • 220753Z AUTO 00000KT 7SM CLR 11/00 A3017 RMK AO2 SLP160 T01060000 402500006

METARs EXPIRÉS :
  • 220653Z AUTO 00000KT 7SM CLR 11/01 A3018 RMK AO2 SLP163 T01110011
  • 220553Z AUTO 00000KT 8SM CLR 11/02 A3019 RMK AO2 SLP170 T01110022 10222 20111 51006

TAF KTVL
Valide du 22 à 06h jusqu'au 23 à 06h UTC


220520Z 2206/2306 19006KT P6SM SCT100 BKN180
FM221700 19012G22KT P6SM SKC
FM230400 19005KT P6SM SKC
FIR KZOA / Amérique du Nord



MET'MAP, la Météo Aéronautique d'un coup d'oeil ! - Copyright ORBIFLY Décembre 2007 - Disclaimer

ORBIFLY MET'MAP TEAM :

Programmation & Développement : Alexandra Zaïnal
Sur une idée originale de : Baudouin d'Aumeries
Assistance à la programmation : Marc-Olivier Méhu
Soutien technique & logistique : Manuel Goepfert

Contact : metmap@orbifly.com




SOURCES & CREDITS :

   NOAA       Earth
Advisory